Location: *
(45.5224°N, 122.7471°W)
Time: 04:04:21
(UTC+00:00)

CZ-2C R/B - Pass Details

Date: 09 April 2020
Orbit: 668 x 784 km, 98.2° (Epoch: 24 May)

Event Time Altitude Azimuth Distance (km) Brightness Sun altitude
Rises 12:11:58 0° 16° (NNE) 3,028 6.3 -14.5°
Reaches altitude 10° 12:14:14 10° 21° (NNE) 2,106 5.5 -14.2°
Maximum altitude 12:18:46 60° 101° (E) 770 2.8 -13.5°
Drops below altitude 10° 12:23:17 10° 181° (S) 2,101 4.5 -12.7°
Sets 12:25:33 0° 185° (S) 3,020 5.3 -12.4°
